Davenport, IA

1:28 PM CST on February 25, 2017 (GMT -0600)
Davenport Municipal

Weather History for KDVN - September, 2011

Change the Weather History Date:

Tuesday, September 27, 2011

  Actual Average Record
Temperature  
Mean Temperature 59 °F 59 °F  
Max Temperature 70 °F 71 °F 88 °F (1954)
Min Temperature 47 °F 47 °F 36 °F (2010)
Degree Days  
Heating Degree Days 6 7  
Month to date heating degree days 171 96  
Since 1 July heating degree days 171 110  
Cooling Degree Days 0 1  
Month to date cooling degree days 57 65  
Year to date cooling degree days 1003 769  
Growing Degree Days 10 (Base 50)    
Moisture  
Dew Point 48 °F    
Average Humidity 70    
Maximum Humidity 93    
Minimum Humidity 47    
Precipitation  
Precipitation 0.16 in 0.12 in 1.97 in (1999)
Month to date precipitation 2.58 2.79  
Year to date precipitation 26.48 28.61  
Snow  
Snow 0.00 in - - ()
Month to date snowfall 0.0  
Since 1 July snowfall 0.0  
Since 1 September snowfall 0.0  
Snow Depth 0.00 in    
Sea Level Pressure  
Sea Level Pressure 29.78 in    
Wind  
Wind Speed 10 mph (NNW)    
Max Wind Speed 21 mph    
Max Gust Speed 26 mph    
Visibility 7 miles    
Events Rain    
T = Trace of Precipitation, MM = Missing Value Source: NWS Daily Summary

Daily Weather History Graph

Daily Weather History Graph

Search for Another Location

Airport or City:

Trip Planner

Search our weather history database for the weather conditions in past years. The results will help you decide how hot, cold, wet, or windy it might be!

Date:

Astronomy

Sep. 27, 2011 Rise Set
Actual Time 6:54 AM CDT 6:51 PM CDT
Civil Twilight 6:27 AM CDT 7:18 PM CDT
Nautical Twilight 5:54 AM CDT 7:51 PM CDT
Astronomical Twilight 5:21 AM CDT 8:23 PM CDT
Moon 7:10 AM CDT (9/27) 6:40 PM CDT (9/27)
Length of Visible Light 12h 51m
Length of Day
11h 56m
New Moon, 0% of the Moon is Illuminated
Sep 27
New Moon
Oct 3
First Quarter
Oct 11
Full
Oct 19
Last Quarter
Oct 26
New

Hourly Weather History & Observations

Time (CDT) Temp. Dew Point Humidity Pressure Visibility Wind Dir Wind Speed Gust Speed Precip Events Conditions
12:25 AM 51.8 °F 48.2 °F 88% 29.64 in 6.0 mi North 19.6 mph 25.3 mph 0.01 in Rain Light Rain
12:32 AM 51.8 °F 48.2 °F 88% 29.64 in 5.0 mi North 17.3 mph 25.3 mph 0.01 in Rain Light Rain
1:00 AM 51.8 °F 48.2 °F 88% 29.64 in 10.0 mi North 20.7 mph 26.5 mph N/A   Overcast
1:52 AM 51.1 °F 46.9 °F 86% 29.65 in 9.0 mi NNE 15.0 mph - N/A   Overcast
2:52 AM 51.1 °F 46.9 °F 86% 29.67 in 8.0 mi North 15.0 mph 23.0 mph N/A   Overcast
3:52 AM 51.1 °F 46.9 °F 86% 29.70 in 6.0 mi NW 8.1 mph - N/A   Overcast
4:52 AM 50.0 °F 46.0 °F 86% 29.71 in 8.0 mi NW 11.5 mph - 0.00 in   Overcast
5:08 AM 50.0 °F 46.4 °F 87% 29.71 in 8.0 mi NNW 11.5 mph 20.7 mph N/A   Overcast
5:52 AM 50.0 °F 46.0 °F 86% 29.75 in 6.0 mi NNW 11.5 mph - 0.00 in Rain Light Rain
7:52 AM 52.0 °F 48.0 °F 86% 29.78 in 5.0 mi NNW 12.7 mph 17.3 mph N/A   Mist
8:05 AM 51.8 °F 48.2 °F 88% 29.77 in 4.0 mi NNW 13.8 mph - 0.00 in Rain Light Rain
8:19 AM 51.8 °F 48.2 °F 88% 29.78 in 5.0 mi NNW 11.5 mph 18.4 mph 0.00 in   Overcast
8:52 AM 53.1 °F 48.9 °F 86% 29.79 in 6.0 mi NNW 11.5 mph - 0.00 in   Overcast
9:52 AM 55.0 °F 50.0 °F 83% 29.81 in 6.0 mi NNW 11.5 mph - N/A   Haze
10:52 AM 57.9 °F 51.1 °F 78% 29.83 in 10.0 mi NNW 10.4 mph - N/A   Overcast
11:38 AM 60.8 °F 51.8 °F 72% 29.84 in 10.0 mi NNE 13.8 mph - N/A   Overcast
11:52 AM 63.0 °F 51.1 °F 65% 29.84 in 10.0 mi North 19.6 mph 26.5 mph N/A   Scattered Clouds
12:40 PM 62.6 °F 48.2 °F 59% 29.82 in 10.0 mi North 15.0 mph - N/A   Mostly Cloudy
12:52 PM 64.9 °F 50.0 °F 58% 29.82 in 10.0 mi North 13.8 mph 19.6 mph N/A   Mostly Cloudy
1:52 PM 64.0 °F 48.9 °F 58% 29.82 in 10.0 mi North 13.8 mph - N/A   Overcast
2:52 PM 69.1 °F 48.9 °F 49% 29.81 in 10.0 mi North 16.1 mph 20.7 mph N/A   Mostly Cloudy
3:52 PM 68.0 °F 48.0 °F 49% 29.81 in 10.0 mi North 17.3 mph 25.3 mph N/A   Scattered Clouds
4:52 PM 64.9 °F 45.0 °F 48% 29.82 in 10.0 mi NNW 10.4 mph 18.4 mph N/A   Partly Cloudy
5:52 PM 64.0 °F 44.1 °F 48% 29.83 in 10.0 mi NW 9.2 mph - N/A   Scattered Clouds
6:52 PM 57.0 °F 44.1 °F 62% 29.84 in 10.0 mi NNW 6.9 mph - N/A   Clear
8:52 PM 57.0 °F 46.9 °F 69% 29.86 in 10.0 mi NW 5.8 mph - N/A   Overcast
9:52 PM 54.0 °F 50.0 °F 86% 29.86 in 4.0 mi NW 5.8 mph - 0.08 in Rain Rain
10:52 PM 54.0 °F 51.1 °F 90% 29.86 in 4.0 mi Calm Calm - 0.07 in Rain Light Rain
11:50 PM 51.8 °F 48.2 °F 88% 29.84 in 1.8 mi Calm Calm - 0.01 in   Partly Cloudy
11:52 PM 51.1 °F 48.0 °F 89% 29.83 in 1.0 mi Calm Calm - 0.01 in   Partly Cloudy